Location: Riverton
(43.0250°N, 108.3790°W)
Time: 14:38:48
(UTC-06:00)

Daily predictions for brighter satellites

Satellite Brightness Start Highest point End
(mag) Time Altitude Azimuth Time Altitude Azimuth Time Altitude Azimuth
Cosmos 292 Rocket 4.1 19:22:27 10° SSW 19:27:14 74° WNW 19:32:06 10° NNE
IDEFIX/ARIANE 42P 3.9 19:23:35 10° S 19:28:37 47° W 19:33:41 10° NNW
Cosmos 2333 Rocket 3.2 19:24:00 10° SW 19:29:38 53° WNW 19:35:17 10° NNE
NOAA 12 4.2 19:28:10 10° SSE 19:33:18 58° ENE 19:38:31 10° N
Timation 1 Rocket 4.4 19:27:54 10° NNW 19:33:52 65° ENE 19:39:47 10° SE
Aureole 2 Rocket 3.0 19:29:34 10° S 19:33:55 66° ESE 19:38:10 10° NNE
OAO 3 Rocket 4.4 19:32:04 10° SW 19:36:11 30° S 19:40:22 10° ESE
Cosmos 1624 Rocket 4.2 19:31:41 10° NNW 19:36:54 76° WSW 19:42:04 10° SSE
SAR-Lupe-1 4.0 19:33:24 10° SSE 19:36:56 68° ENE 19:40:30 10° N
Cosmos 1484 Rocket 3.3 19:33:23 10° S 19:37:11 66° W 19:41:05 10° NNW
Cosmos 1766 Rocket 4.0 19:36:37 10° N 19:40:46 41° ENE 19:44:53 10° SSE
USA 215 3.6 19:37:35 10° ENE 19:43:50 46° SE 19:50:03 10° SSW
Meteor 1-29 4.0 19:43:11 10° NE 19:46:09 25° E 19:49:07 10° SSE
ALOS 3.2 19:44:06 10° SE 19:48:04 28° ENE 19:52:02 10° N
Helios 1B rocket 3.0 19:44:21 10° NNE 19:48:10 36° E 19:51:58 10° SSE
Cosmos 1076 Rocket 3.5 19:47:26 10° N 19:51:45 66° E 19:56:04 10° SSE
Cosmos 2237 Rocket 3.6 19:47:27 10° SW 19:52:48 41° WNW 19:58:10 10° NNE
CZ-4C R/B 3.5 19:48:22 10° WSW 19:53:31 43° NW 19:59:21 10° NNE
Meteor 1-21 Rocket 4.5 19:50:01 10° N 19:55:23 46° ENE 20:00:41 10° SSE
Cosmos 2034 Rocket 4.1 19:50:01 10° SSE 19:56:04 55° E 20:02:14 10° NNE
ATLAS 5 CENTAUR R/B 1.9 19:51:26 10° SSW 19:56:05 56° ESE 20:01:09 10° NE
SeaSat 1 3.9 19:53:47 10° ENE 19:56:46 16° ESE 19:59:44 10° SE
Cosmos 1766 3.4 19:53:26 10° S 19:57:24 79° W 20:01:25 10° N
Cosmos 1464 Rocket 3.9 19:51:37 10° S 19:57:50 76° E 20:04:02 10° N
CZ-4B DEB 3.9 19:57:05 16° ESE 19:58:52 25° ENE 20:01:38 10° NNE
Cosmos-2242 3.4 19:54:47 10° SSE 19:58:54 43° E 20:03:03 10° NNE
FREGAT/IRIS 3.0 20:01:09 10° S 20:04:13 68° W 20:07:19 10° NNW
Cosmos 1452 Rocket 3.4 20:01:06 10° NNW 20:06:22 78° ENE 20:11:37 10° SSE
ATLAS CENTAUR R/B 3.9 20:05:55 10° WNW 20:09:02 20° WSW 20:11:57 10° SSW
CZ-2D R/B 4.0 20:09:16 19° ESE 20:11:24 34° ENE 20:14:56 10° N
SL-16 R/B 2.7 20:07:13 10° SW 20:12:50 63° WNW 20:18:30 10° NNE
Cosmos 1500 Rocket 4.2 20:10:22 10° N 20:14:25 34° ENE 20:16:35 22° SE
Cosmos 1842 Rocket 4.3 20:10:41 10° SSE 20:14:27 30° E 20:18:15 10° NNE
Cosmos 1408 Rocket 3.6 20:10:09 10° N 20:14:32 80° W 20:18:50 10° S
Cosmos 1544 3.3 20:13:18 10° S 20:16:54 49° E 20:20:33 10° NNE
SL-8 R/B 4.3 20:13:50 10° SSW 20:18:11 36° SE 20:20:05 26° E
NOSS 3-2 (A) 3.8 20:12:45 10° SW 20:18:50 71° NW 20:25:32 10° NNE
Cosmos 1953 2.3 20:19:16 10° S 20:23:15 87° W 20:27:16 10° N
METEOR-M 4.5 20:18:37 10° S 20:23:56 68° WSW 20:29:18 10° NNW
Cosmos 468 4.4 20:18:59 10° S 20:24:11 68° ESE 20:29:24 10° NNE
H-2A R/B 2.9 20:25:26 27° SE 20:27:15 50° ENE 20:31:01 10° N
Cosmos 1805 3.3 20:23:42 10° SSW 20:27:38 78° W 20:31:36 10° N
Cosmos 1420 Rocket 4.0 20:23:07 10° NNW 20:28:25 69° ENE 20:32:19 18° SSE
Gbstr 26 Del rocket 4.3 20:25:01 10° S 20:28:30 25° SE 20:28:30 25° SE
Cosmos 1346 2.9 20:29:35 10° N 20:32:35 89° SW 20:33:27 42° S
Abrixas 3.7 20:29:54 10° SSW 20:31:53 28° S 20:31:53 28° S
Resurs 1-3 3.8 20:28:33 10° S 20:32:56 73° WSW 20:37:20 10° NNW
Resurs 01 Rocket 2.3 20:29:38 10° S 20:34:00 55° W 20:38:23 10° NNW
ATLAS CENTAUR R/B 4.0 20:29:11 10° SW 20:34:44 81° NW 20:53:39 10° NE
FENGYUN 3A 3.5 20:29:59 10° SSE 20:35:21 79° ENE 20:40:46 10° N
TELKOM 3 3.9 20:34:29 10° WNW 20:36:36 45° NNW 20:36:36 45° NNW
ASTEX 1 3.3 20:32:24 10° NNE 20:37:18 66° E 20:42:09 10° S
Cosmos 1743 Rocket 3.6 20:38:31 10° N 20:42:59 83° W 20:46:46 14° S
Helios 1A 4.0 20:39:55 10° S 20:43:58 46° W 20:48:02 10° NNW
Cosmos 1269 Rocket 3.9 20:41:26 10° SSW 20:46:42 82° ESE 20:52:01 10° NNE
Cosmos 1048 Rocket 3.9 20:43:08 10° S 20:48:25 73° ESE 20:53:40 10° NNE
Cosmos 1470 2.5 20:49:04 45° SSE 20:50:09 73° E 20:54:03 10° NNE
CENTAUR R/B 2.6 20:47:08 10° S 20:52:54 49° ESE 20:59:20 10° NE
Cosmos 2369 Rocket 2.2 20:49:08 10° NNW 20:54:43 58° ENE 20:56:06 46° ESE
Cosmos 1943 3.2 20:50:33 10° S 20:55:57 51° ESE 21:01:24 10° NE
CZ-4B DEB 4.5 20:56:00 81° SSW 20:56:08 85° W 20:59:46 10° NNW
Envisat 3.7 20:56:32 35° ENE 20:56:32 35° ENE 21:00:46 10° N
NOSS 3-2 (C) 4.3 20:51:24 10° WSW 20:57:24 51° NW 21:03:58 10° NNE
Cosmos 1943 Rocket 3.1 20:53:16 10° N 20:58:10 29° NE 20:58:11 29° NE
Cosmos 1733 3.9 20:59:28 43° NNE 20:59:28 43° NNE 21:02:10 10° NNE
Cosmos 2263 4.5 20:54:00 10° NNW 20:59:36 47° ENE 21:00:19 45° E
Cosmos 1603 4.0 20:54:28 10° SSW 21:00:10 68° WNW 21:05:56 10° NNE
GP-B 2.9 20:56:28 10° N 21:00:55 70° E 21:01:03 69° ESE
Nadezhda 4 Rocket 4.5 20:58:53 10° NNW 21:05:04 61° W 21:11:09 10° S
BREEZE-M DEB (TANK) 3.3 20:54:45 10° W 21:06:32 72° N 21:07:42 52° ENE
Cosmos 2279 Rocket 4.4 21:07:31 41° ENE 21:07:31 41° ENE 21:12:33 10° NNE
ISS -0.7 21:05:30 10° SW 21:06:00 14° SW 21:06:00 14° SW
Cosmos 1655 Rocket 4.0 21:04:34 10° N 21:10:42 57° ENE 21:11:27 54° ESE
Cosmos 1674 3.5 21:06:58 10° NNW 21:10:44 50° W 21:11:35 41° SW
Cosmos 1092 Rocket 4.1 21:06:00 10° NNW 21:12:11 73° W 21:17:09 16° S
Cosmos 2142 Rocket 4.4 21:12:09 10° S 21:18:31 86° E 21:24:58 10° N
H-2A R/B 4.1 21:26:04 19° NNE 21:26:04 19° NNE 21:27:37 10° N
ALOS 4.0 21:21:17 10° SSW 21:25:24 31° W 21:29:34 10° NNW
Cosmos 2026 Rocket 3.8 21:20:29 10° N 21:26:36 83° E 21:27:32 66° SSE
USA 215 3.7 21:20:58 12° NE 21:26:56 58° NNW 21:33:18 10° WSW
Cosmos 1634 Rocket 4.0 21:21:50 10° SSW 21:28:04 77° W 21:34:19 10° N
Meteor 1-11 4.1 21:23:58 10° N 21:29:48 83° ENE 21:29:58 82° ESE
Meteor 1-16 Rocket 4.3 21:32:24 59° NNE 21:32:24 59° NNE 21:36:43 10° N
ERS-1 Rocket 3.1 21:35:09 67° NNW 21:35:09 67° NNW 21:39:30 10° NNW
SeaSat 1 2.6 21:29:47 10° NNE 21:34:43 71° WNW 21:39:38 10° SW
Cosmos 1110 Rocket 4.2 21:34:21 10° NNW 21:38:51 65° NNW 21:38:51 65° NNW
UNK 4.5 21:20:42 10° WNW 21:39:52 65° N 21:41:05 55° NE
ATLAS 5 CENTAUR R/B 3.9 21:37:03 10° W 21:41:09 26° NW 21:45:36 10° NNE
Cosmos 2151 4.5 21:43:42 10° NNW 21:46:35 34° NW 21:46:35 34° NW
Cosmos 2369 Rocket 4.2 22:34:09 10° NW 22:37:56 21° W 22:37:56 21° W
Cosmos 1943 Rocket 3.9 22:36:46 10° NW 22:39:43 29° NW 22:39:43 29° NW
CENTAUR R/B 3.8 22:37:56 10° WSW 22:43:44 38° NW 22:50:15 10° NNE
